Погода в Кигбаеве

Россия / Удмуртская Республика     56°21′45″N   53°37′54″E
темп.,
°C
ветер,
м/с
пор.,
м/с
влажн.,
%
обл.,
%
осадки,
мм/ч
давл.,
гПа
погр.,
м
16 мая, вс
вс1601:00+19ююз475726 0.0 1019106
04:00+18юз34566 0.0 101941
07:00+21ююз39545 0.0 1019222
10:00+27ююз683734 0.0 1019656
13:00+30ююз79283 0.0 10182803
16:00+30юз68305 0.0 10183332
19:00+25юз344556 0.0 101769
22:00+21ююз345180 0.0 101748
17 мая, пн
пн1701:00+19ююз465735 0.0 101779
04:00+17юз475860 0.0 101798
07:00+21зюз37535 0.0 1018206
10:00+25зюз574085 0.0 1018744
13:00+28зюз683569 0.0 10181450
16:00+28з6935100 0.0 10172019
19:00+25з3751100 0.0 1017147
22:00+20сз226325 0.2 101711
18 мая, вт
вт1801:00+17св11785 0.9 101811
04:00+17с22735 1.1 101912
07:00+19с236689 0.0 1019178
10:00+23с3451100 0.0 1019758
13:00+25с4541100 0.0 10191335
16:00+25с4542100 0.0 10191331
19:00+22ссв365481 0.0 1020148
22:00+17св4106432 0.0 1021193
19 мая, ср
ср1901:00+14всв49735 0.0 1022179
04:00+12в4108412 0.0 1023231
07:00+14в58665 0.0 1023349
10:00+19в57486 0.0 1023697
13:00+22вюв56375 0.0 10221084
16:00+23вюв56365 0.0 10211260
19:00+21вюв36530 0.0 1020149
22:00+16вюв48625 0.0 1020111
20 мая, чт
чт2001:00+14вюв356547 0.0 102063
04:00+13ююв336962 0.0 102139
07:00+17ююв48606 0.0 1021253
10:00+22ююв57435 0.0 1020991
13:00+24ю78360 0.0 10191691
16:00+25ю68340 0.0 10191987
19:00+22ююв37510 0.0 1018164
22:00+16зюз11820 0.0 101811